This is the latest recevied weather packets stored in our database for station/object F4IVW-13. If no packets are shown the sender has not sent any weather packets the latest 10 day(s).
| Time | Temp. | Humidity | Pressure | Rain* | Wind** | Luminosity | Snow |
|---|---|---|---|---|---|---|---|
| 1778054463 | 12.22° C | 99% | 1013 hPa | 0 mm | - | 95 W/m² | - |
| 1778054146 | 11.67° C | 99% | 1013 hPa | 0 mm | - | 4 W/m² | - |
| 1778053829 | 11.67° C | 99% | 1012.9 hPa | 0 mm | - | 5 W/m² | - |
| 1778053519 | 11.67° C | 99% | 1012.9 hPa | 0 mm | - | 2 W/m² | - |
| 1778053191 | 12.22° C | 99% | 1012.9 hPa | 0 mm | - | 2 W/m² | - |
| 1778052874 | 12.22° C | 99% | 1012.9 hPa | 0 mm | - | 1 W/m² | - |
| 1778052557 | 12.22° C | 99% | 1013 hPa | 0 mm | - | 1 W/m² | - |
| 1778051921 | 12.78° C | 99% | 1013 hPa | 0 mm | - | 6 W/m² | - |
| 1778051621 | 12.22° C | 99% | 1013 hPa | 0 mm | - | 8 W/m² | - |
| 1778051291 | 10.56° C | 99% | 1013 hPa | 0 mm | - | 85 W/m² | - |
| 1778050654 | 10.56° C | 99% | 1012.8 hPa | 0 mm | - | 0 W/m² | - |
| 1778048422 | 10.56° C | 99% | 1012.8 hPa | 0 mm | - | 0 W/m² | - |
| 1778048105 | 10.56° C | 99% | 1012.8 hPa | 0 mm | - | 0 W/m² | - |
| 1778047786 | 10° C | 99% | 1012.9 hPa | 0 mm | - | 1 W/m² | - |
| 1778047478 | 10° C | 99% | 1012.8 hPa | 0 mm | - | 1 W/m² | - |
| 1778047152 | 10° C | 99% | 1012.8 hPa | 0 mm | - | 1 W/m² | - |
| 1778046835 | 9.44° C | 99% | 1012.8 hPa | 0 mm | - | 0 W/m² | - |
| 1778046517 | 9.44° C | 99% | 1012.8 hPa | 0 mm | - | 0 W/m² | - |
| 1778046200 | 9.44° C | 99% | 1012.7 hPa | 0 mm | - | 0 W/m² | - |
| 1778045883 | 9.44° C | 99% | 1012.7 hPa | 0 mm | - | 0 W/m² | - |
| 1778045574 | 9.44° C | 99% | 1012.7 hPa | 0 mm | - | 0 W/m² | - |
| 1778045249 | 9.44° C | 99% | 1012.6 hPa | 0 mm | - | 0 W/m² | - |
| 1778044932 | 9.44° C | 99% | 1012.5 hPa | 0 mm | - | 0 W/m² | - |
| 1778044615 | 9.44° C | 99% | 1012.6 hPa | 0 mm | - | 0 W/m² | - |
| 1778044298 | 9.44° C | 99% | 1012.5 hPa | 0 mm | - | 0 W/m² | - |
* Rain latest hour (hover to see other rain measurements)
** Current wind speed in m/s (hover to see current wind gust speed)